ARIANE 5 R/B, 43634

Orbit data source: Space-Track

ARIANE 5 R/B, 43634 is space debris in HEO originally from a launch on Tue, 25 Sep 2018 UTC launched from the French Guiana (FRGUI). Debris objects in space refer to the collection of defunct objects orbiting the Earth. Examples of debris include non-operational satellites, rocket bodies, and fragments generated from explosions, collisions, or faulty payload assembly.

Loading next visibility...
ARIANE 5 R/B details
Identifier
43634, 2018-074C
Orbit
HEO
Last TLE update18 hours ago
Origin
Flag of FRArianespace (FR)
ManufacturerArianeGroup
MissionSpacecraft
Bus & MotorESC-A, Unknown motor
Mass~5,000 kg wet, ~5,000 kg dry
Launch date (UTC)
2018-09-25 (6 years ago)
Launch vehicleUnknown
Launch site
French Guiana (FRGUI)
Object type
Payload
Rocket body
Debris
Shape & HBRCyl + 1 Nozzle, 7 m
Radar Cross Section41.627 m², Large (>1 m²)

Expand to show TLE details & history

TLE from 18 hours ago
0 ARIANE 5 R/B
1 43634U 18074C   24360.80278324  .00002545  00000-0  11172-2 0  9999
2 43634   6.1536 284.6268 7165163 294.1002   9.4915  2.41434598 53237
Epoch: 2024-12-25T19:16Z
Definitive object data (Epoch: 2024-12-25T19:16:00.471Z)
Latitude-0.00018°
Longitude-98.98493°
Altitude2,469.36 km
Speed8.55 km/s
True Right ascension18h 59m 13s
True Declination0° 00' 01"
Sunlit
Object was in daylight at TLE epoch
Visualization TLE readout
Latitude2.70794°
Longitude54.71258°
Altitude19,288.265 km
Speed3.752 km/s
Apparent Right ascension04h 36m 22s
Apparent Declination-5° 52' 08"
Sunlit
Object is in daylight
Visualization observer readout
Local Sidereal Time12:40:58
Azimuth286.473° WNW
Elevation-27.404°
Doppler factor1
Orbital elements
Apogee altitude33,919.931 km
Perigee altitude277.113 km
Semi-major axis23,476.659 km
Eccentricity0.7165163
Inclination6.1536°
RAAN284.6268°
Arg. of periapsis294.1002°
True anomaly66.88528°
Mean anomaly9.4915°
Eccentric anomaly30.04789°
Mean motion0.60338 °/min
BSTAR0.0011172
Orbital period596.64 mins
Loading maneuver chart data...
Loading historical data...
Loading historical data...
Loading historical data...
Loading historical data...
Loading historical data...
Loading historical data...
Loading historical data...
Other satellites on launch #74 in the year 2018 (2018-09-25 UTC)

ARIANE 5 R/B Visibility forecast

Observer location: undefined°, undefined

Span
Click to sort rows by Start time (UTC) header in descending order
Start Az.
Max El. time (UTC)
Max El. Az.
Max El.
End time (UTC)
End Az.
533 mins2024-12-27 01:29:18.613Z241.182° WSW2024-12-27 03:28:18.613Z221.726° SW33.096°2024-12-27 10:22:18.613Z200.117° SSW
|